STARLINK-4070, 52664

Orbit data source: Space-Track

STARLINK-4070, 52664 is a payload satellite owned by SpaceX/Seattle (US) in LEO that was launched on Wed, 18 May 2022 UTC via an FALCON 9 launch vehicle from the Air Force Eastern Test Range (AFETR). Payload-class satellites include a variety of spacecraft equipped with specific instruments for various scientific and technological missions. These include communications satellites like Starlink; space stations such as the ISS; scientific satellites like the Hubble; Earth observation satellites from companies like Planet Labs, Umbra, and HawkEye 360; GPS; miniature CubeSats for education and research; and military/defense satellites.

Loading next visibility...
Identifier
52664, 2022-053J
Orbit
LEO
Country
Flag of USUS
Related business
Manufacturer
SpaceX/Seattle
Mission
Operational Commercial Communications
Bus & Motor
STARLINK, Unknown motor
Mass
297 kg wet, ~275 kg dry
Launch date (UTC)
2022-05-18 (4 years ago)
Launch vehicle
FALCON 9
Launch site
Air Force Eastern Test Range (AFETR)
Object type
Payload
Rocket body
Debris
Shape & HBR
Box + 1 Pan, 10.1 m
Radar Cross Section
13.562 m², Large (>1 m²)

Expand to show TLE details & history
Last TLE update: 2 days ago

TLE from 2 days ago
0 STARLINK-4070
1 52664U 22053J   26170.95485521 -.00000283  00000-0  29674-6 0  9998
2 52664  53.1601  54.9226 0001351  88.0520 272.0626 15.08833567226485
Epoch: 2026-06-19T22:54Z
TLE epoch observation values (Epoch: 2026-06-19T22:54:59.490Z)
Latitude
-0.00002°
Longitude
162.9983°
Altitude
540.621 km
Speed
7.593 km/s
True Right ascension
03h 39m 41s
True Declination
0° 00' 00"
Sunlit
Object was in daylight at epoch
Visualization orbit readout
Latitude
Unknown
Longitude
Unknown
Altitude
Unknown
Speed
Unknown
Apparent Right ascension
Unknown
Apparent Declination
Unknown
Sunlit
N/A
Visualization observer readout
Local Sidereal Time
21:26:58
Azimuth
Unknown
Elevation
Unknown
Doppler factor
Unknown
Orbital elements
Apogee altitude
540.952 km
Perigee altitude
539.083 km
Semi-major axis
6,918.154 km
Eccentricity
0.00014
Inclination
53.1601°
RAAN
54.9226°
Arg. of periapsis
88.052°
True anomaly
272.04713°
Mean anomaly
272.0626°
Eccentric anomaly
272.05486°
Mean motion
3.77188 °/min
Orbital period
95.44 mins
BSTAR
2.9674e-7
Loading maneuver chart data...
Computing Atmospheric mass density...
Loading historical data...
Loading historical data...
Loading historical data...
Loading historical data...
Loading historical data...
Loading historical data...
Loading historical data...

Documentation

Showing up to 5 results
|